Stations météo

réclame
Mon MeteoGroup
Edsbyn, Suède (2336): Température de l'air & dewpoint: 19.02.2018 06:00:00 - 25.02.2018 06:00:00 (CET)Edsbyn, Suède (2336): Vitesse du vent: 19.02.2018 06:00:00 - 25.02.2018 06:00:00 (CET)Edsbyn, Suède (2336): Direction du vent: 19.02.2018 06:00:00 - 25.02.2018 06:00:00 (CET)Edsbyn, Suède (2336): reduced air pressure: 19.02.2018 06:00:00 - 25.02.2018 06:00:00 (CET)Edsbyn, Suède (2336): visibility: 19.02.2018 06:00:00 - 25.02.2018 06:00:00 (CET)
Date & Time tt [°C] td [°C] ff [km/h] ff [knt] dd ppp [hPa] vv [km]
25.02.2018 06:00:00 - - - - - - -
25.02.2018 05:00:00 -21,0 -23,5 11 6 WNW 1046,5 50
25.02.2018 04:00:00 -20,3 -23,0 7 4 WNW 1046,3 50
25.02.2018 03:00:00 -18,5 -21,4 18 10 NW 1045,9 50
25.02.2018 02:00:00 -18,2 -20,9 11 6 WNW 1045,8 50
25.02.2018 01:00:00 -17,6 -20,4 11 6 WNW 1045,4 50
25.02.2018 00:00:00 -16,2 -19,0 14 8 NW 1045,6 50
24.02.2018 23:00:00 -16,2 -18,7 11 6 WNW 1045,5 50
24.02.2018 22:00:00 -15,3 -17,7 11 6 WNW 1045,4 50
24.02.2018 21:00:00 -17,3 -19,4 7 4 WNW 1045,1 7
24.02.2018 20:00:00 -15,7 -17,8 11 6 NNW 1044,6 50
24.02.2018 19:00:00 -15,5 -17,4 7 4 NNW 1044,3 50
24.02.2018 18:00:00 -13,5 -15,5 7 4 NW 1043,6 2,9
24.02.2018 17:00:00 -11,5 -14,3 4 2 ENE 1043,2 11
24.02.2018 16:00:00 -10,4 -13,3 0 0 N 1042,9 20
24.02.2018 15:00:00 -10,1 -12,7 4 2 N 1042,5 5
24.02.2018 14:00:00 -9,8 -12,3 4 2 W 1042,1 5
24.02.2018 13:00:00 -10,0 -12,5 4 2 NNW 1042,2 4,6
24.02.2018 12:00:00 -10,9 -13,4 4 2 W 1042,5 4,0
24.02.2018 11:00:00 -12,7 -14,8 7 4 W 1042,6 2,6
24.02.2018 10:00:00 -13,9 -16,4 0 0 N 1042,6 16
24.02.2018 09:00:00 -15,4 -17,8 0 0 N 1042,2 50
24.02.2018 08:00:00 -17,1 -19,4 0 0 N 1042,1 45
24.02.2018 07:00:00 -16,9 -19,2 0 0 N 1042,0 50
24.02.2018 06:00:00 -17,5 -19,8 0 0 N 1041,6 50
24.02.2018 05:00:00 -16,0 -18,1 7 4 NW 1041,2 50
24.02.2018 04:00:00 -17,8 -19,8 4 2 NNW 1040,7 50
24.02.2018 03:00:00 -15,6 -17,7 11 6 NW 1040,7 50
24.02.2018 02:00:00 -19,2 -21,4 4 2 NW 1040,9 35
24.02.2018 01:00:00 -18,4 -20,3 4 2 NNW 1040,5 50
24.02.2018 00:00:00 -16,2 -18,0 4 2 NNW 1040,0 29
23.02.2018 23:00:00 -15,5 -17,3 4 2 NNW 1039,6 6
23.02.2018 22:00:00 -16,1 -17,9 4 2 NW 1039,1 50
23.02.2018 21:00:00 -16,0 -17,7 4 2 NNW 1038,4 50
23.02.2018 20:00:00 -14,3 -15,6 0 0 N 1037,9 9
23.02.2018 19:00:00 -13,8 -15,8 4 2 ENE 1037,4 50
23.02.2018 18:00:00 -9,6 -12,9 7 4 NE 1036,9 45
23.02.2018 17:00:00 -8,6 -12,1 11 6 NE 1036,3 5
23.02.2018 16:00:00 -8,4 -12,0 11 6 NE 1035,5 12
23.02.2018 15:00:00 -8,3 -11,9 11 6 N 1035,0 5
23.02.2018 14:00:00 -8,2 -12,0 14 8 N 1034,6 19
23.02.2018 13:00:00 -8,2 -11,5 11 6 N 1034,2 18
23.02.2018 12:00:00 -8,4 -11,9 18 10 NE 1033,9 10
23.02.2018 11:00:00 -8,8 -11,9 7 4 N 1033,4 12
23.02.2018 10:00:00 -9,1 -13,4 18 10 N 1032,7 45
23.02.2018 09:00:00 -9,7 -13,1 7 4 NW 1032,1 45
23.02.2018 08:00:00 -10,0 -12,9 11 6 NW 1031,5 50
23.02.2018 07:00:00 -10,0 -12,8 7 4 WNW 1030,7 50
23.02.2018 06:00:00 -10,0 -12,3 7 4 WNW 1030,1 50
23.02.2018 05:00:00 -9,7 -12,3 4 2 WNW 1029,6 40
23.02.2018 04:00:00 -9,5 -11,8 4 2 NW 1029,5 27
23.02.2018 03:00:00 -9,0 -11,4 4 2 ENE 1028,7 40
23.02.2018 02:00:00 -9,2 -11,0 4 2 NW 1028,5 35
23.02.2018 01:00:00 -8,5 -10,3 7 4 NW 1028,2 6
23.02.2018 00:00:00 -9,6 -11,2 0 0 N 1028,0 29
22.02.2018 23:00:00 -9,0 -10,3 4 2 WNW 1028,1 21
22.02.2018 22:00:00 -9,6 -10,9 4 2 NNW 1027,9 35
22.02.2018 21:00:00 -9,8 -11,1 4 2 NW 1027,8 25
22.02.2018 20:00:00 -9,6 -10,9 4 2 WNW 1027,8 16
22.02.2018 19:00:00 -9,1 -10,4 4 2 NNW 1027,9 22
22.02.2018 18:00:00 -8,0 -9,9 0 0 N 1028,0 28
22.02.2018 17:00:00 -6,8 -9,4 0 0 N 1027,9 35
22.02.2018 16:00:00 -6,2 -9,4 0 0 N 1028,0 14
22.02.2018 15:00:00 -5,5 -9,2 0 0 N 1028,3 18
22.02.2018 14:00:00 -5,4 -9,3 4 2 W 1028,5 40
22.02.2018 13:00:00 -6,1 -10,0 4 2 NNW 1029,0 45
22.02.2018 12:00:00 -6,0 -10,2 0 0 N 1029,1 40
22.02.2018 11:00:00 -7,8 -10,8 4 2 W 1029,4 9
22.02.2018 10:00:00 -9,0 -11,7 7 4 WNW 1029,6 10
22.02.2018 09:00:00 -9,8 -12,1 11 6 NW 1029,8 14
22.02.2018 08:00:00 -10,3 -12,5 7 4 NW 1029,8 6
22.02.2018 07:00:00 -10,8 -12,8 11 6 NW 1029,6 15
22.02.2018 06:00:00 -11,2 -13,4 4 2 NNW 1029,2 12
22.02.2018 05:00:00 -10,1 -12,1 11 6 WNW 1029,6 16
22.02.2018 04:00:00 -10,1 -12,1 7 4 NW 1029,7 20
22.02.2018 03:00:00 -10,5 -12,5 7 4 WNW 1029,6 12
22.02.2018 02:00:00 -10,7 -12,9 7 4 WNW 1029,7 5
22.02.2018 01:00:00 -10,8 -13,0 7 4 WNW 1030,0 13
22.02.2018 00:00:00 -10,8 -13,0 11 6 WNW 1030,0 22
21.02.2018 23:00:00 -11,0 -13,2 7 4 NW 1029,7 40
21.02.2018 22:00:00 -10,9 -13,1 11 6 NW 1029,6 45
21.02.2018 21:00:00 -11,0 -12,9 14 8 NW 1029,6 50
21.02.2018 20:00:00 -11,2 -13,2 11 6 NW 1029,4 45
21.02.2018 19:00:00 -11,0 -12,9 11 6 NW 1029,2 23
21.02.2018 18:00:00 -11,5 -13,4 7 4 NNW 1028,9 35
21.02.2018 17:00:00 -11,3 -13,2 7 4 NNW 1028,7 12
21.02.2018 16:00:00 -9,4 -11,9 7 4 NNE 1028,7 45
21.02.2018 15:00:00 -8,8 -11,9 7 4 ENE 1028,9 30
21.02.2018 14:00:00 -6,5 -11,4 0 0 N 1029,1 40
21.02.2018 13:00:00 -7,1 -12,6 4 2 WSW 1029,2 50
21.02.2018 12:00:00 -9,0 -15,3 0 0 N 1029,3 35
21.02.2018 11:00:00 -11,6 -17,4 0 0 N 1029,3 45
21.02.2018 10:00:00 -13,6 -17,1 7 4 WNW 1029,4 45
21.02.2018 09:00:00 -15,3 -18,3 11 6 WNW 1029,3 40
21.02.2018 08:00:00 -16,3 -18,8 11 6 WNW 1029,1 45
21.02.2018 07:00:00 -15,8 -18,2 14 8 NW 1028,8 40
21.02.2018 06:00:00 -14,6 -16,8 14 8 NW 1028,8 4,6
21.02.2018 05:00:00 -13,4 -15,8 14 8 WNW 1028,9 35
21.02.2018 04:00:00 -13,1 -15,1 11 6 NW 1029,0 50
21.02.2018 03:00:00 -11,8 -13,8 11 6 WNW 1029,0 50
21.02.2018 02:00:00 -11,7 -13,4 7 4 WNW 1029,1 30
21.02.2018 01:00:00 -10,4 -12,4 4 2 NW 1029,2 35
21.02.2018 00:00:00 -9,7 -11,7 7 4 NW 1029,5 30
20.02.2018 23:00:00 -9,4 -11,4 4 2 WNW 1029,4 19
20.02.2018 22:00:00 -9,0 -11,1 4 2 WNW 1029,4 29
20.02.2018 21:00:00 -8,5 -10,7 7 4 NW 1029,3 13
20.02.2018 20:00:00 -8,3 -10,8 4 2 WNW 1029,5 13
20.02.2018 19:00:00 -8,2 -10,7 4 2 NW 1029,6 19
20.02.2018 18:00:00 -8,0 -10,7 4 2 NNW 1029,6 19
20.02.2018 17:00:00 -7,8 -10,5 7 4 N 1029,3 21
20.02.2018 16:00:00 -7,6 -10,3 4 2 NNE 1029,6 19
20.02.2018 15:00:00 -7,3 -10,0 7 4 NNE 1029,9 12
20.02.2018 14:00:00 -7,2 -10,4 4 2 NNE 1030,2 14
20.02.2018 13:00:00 -7,4 -10,4 11 6 ENE 1030,4 15
20.02.2018 12:00:00 -8,1 -10,9 4 2 WNW 1030,7 4,8
20.02.2018 11:00:00 -9,5 -12,8 7 4 NW 1031,0 12
20.02.2018 10:00:00 -10,9 -13,7 11 6 NW 1030,8 11
20.02.2018 09:00:00 -12,1 -14,8 14 8 NW 1031,1 7
20.02.2018 08:00:00 -12,8 -15,2 11 6 NW 1031,2 7
20.02.2018 07:00:00 -12,7 -15,3 14 8 NW 1031,1 12
20.02.2018 06:00:00 -13,0 -15,6 14 8 NW 1031,2 50
20.02.2018 05:00:00 -12,0 -14,4 18 10 NW 1031,1 45
20.02.2018 04:00:00 -11,2 -13,5 18 10 NW 1031,3 30
20.02.2018 03:00:00 -10,6 -12,8 14 8 NW 1031,7 14
20.02.2018 02:00:00 -10,4 -12,4 7 4 NW 1031,8 25
20.02.2018 01:00:00 -9,4 -11,4 14 8 NNW 1031,7 40
20.02.2018 00:00:00 -9,4 -11,0 11 6 NW 1032,0 24
19.02.2018 23:00:00 -8,0 -10,1 14 8 NW 1032,1 17
19.02.2018 22:00:00 -7,8 -10,0 7 4 NNW 1032,0 8
19.02.2018 21:00:00 -9,6 -11,2 7 4 NNW 1032,0 30
19.02.2018 20:00:00 -7,5 -9,7 0 0 N 1032,0 18
19.02.2018 19:00:00 -7,3 -9,5 4 2 ENE 1031,8 19
19.02.2018 18:00:00 -7,1 -9,3 4 2 ENE 1031,9 35
19.02.2018 17:00:00 -6,8 -9,0 4 2 E 1031,6 40
19.02.2018 16:00:00 -6,4 -9,6 4 2 NNE 1031,2 50
19.02.2018 15:00:00 -5,7 -9,3 7 4 NNE 1030,8 40
19.02.2018 14:00:00 -6,0 -9,4 11 6 N 1030,8 45
19.02.2018 13:00:00 -5,4 -8,6 11 6 N 1030,6 19
19.02.2018 12:00:00 -5,4 -8,6 11 6 N 1030,6 19
19.02.2018 11:00:00 -5,3 -9,0 7 4 N 1030,2 25
19.02.2018 10:00:00 -5,2 -8,6 4 2 NNE 1029,8 14
19.02.2018 09:00:00 -5,2 -7,9 7 4 NNE 1029,1 11
19.02.2018 08:00:00 -5,1 -7,8 11 6 NE 1028,6 13
19.02.2018 07:00:00 -4,8 -7,7 11 6 NNE 1028,2 30
19.02.2018 06:00:00 -4,5 -8,1 7 4 N 1027,4 45

tt = Température de l'air
td = dewpoint
ff = Vitesse du vent
dd = Direction du vent
ppp = reduced air pressure
vv = visibility

stations d'obs. à proximité